Regional Weather Roundup
Issued by NWS Newport/Morehead, NC

Current Version | Previous Version | Graphics & Text | Print | Product List | Glossary On
Versions: 1 2 3 4 5 6 7 8 9 10 11 12 13 14 15 16 17 18 19 20 21 22 23 24 25 26 27 28 29 30 31 32 33 34 35 36 37 38 39 40 41 42 43 44 45 46 47 48 49 50
000 ASUS42 KMHX 012222 RWRMHX WEATHER ROUNDUP FOR EASTERN NORTH CAROLINA NATIONAL WEATHER SERVICE NEWPORT/MOREHEAD CITY NC 500 PM EST SUN FEB 01 2015 NOTE: "FAIR" INDICATES FEW OR NO CLOUDS BELOW 12,000 FEET WITH NO SIGNIFICANT WEATHER AND/OR OBSTRUCTIONS TO VISIBILITY NCZ015>017-031-032-045>047-102-103-012300- NORTH COAST CITY SKY/WX TMP DP RH WIND PRES REMARKS EDENTON CLOUDY 48 32 55 S5 30.14S ELIZABETH CITY CLOUDY 43 30 60 SE6 30.15F KITTY HAWK CLOUDY 44 33 65 CALM 30.14F MANTEO CLOUDY 45 34 65 SE7 30.16F $$ NCZ045>047-081-094-103-104-012300- CENTRAL COAST CITY SKY/WX TMP DP RH WIND PRES REMARKS FRISCO MOCLDY 52 38 58 SW7 30.17F SWANQUARTER N/A 48 N/A N/A S3 30.12S $$ NCZ095-097-098-100-101-012300- SOUTHERN COAST CITY SKY/WX TMP DP RH WIND PRES REMARKS BEAUFORT PTCLDY 52 40 63 SE5 30.15F CEDAR ISLAND N/A 50 N/A N/A S5 30.18S JACKSONVILLE CLOUDY 56 38 50 S7 30.14F PINEY ISLAND N/A N/A N/A N/A MISG 30.15F WILMINGTON PTCLDY 57 41 55 SE5 30.13F $$ NCZ011>013-027>030-043-044-078>080-089-090>093-098-012300- COASTAL PLAIN CITY SKY/WX TMP DP RH WIND PRES REMARKS AHOSKIE MOCLDY 51 23 33 S7 30.12F CLINTON CLOUDY 58 40 51 S5 30.12S ELIZABETHTOWN CLOUDY 58 36 43 S6 30.11F GOLDSBORO CLOUDY 56 31 38 CALM 30.10F GREENVILLE CLOUDY 54 23 30 S6 30.14F HAVELOCK MOCLDY 54 36 50 S7 30.15F KENANSVILLE MOCLDY 57 35 44 CALM 30.13S KINSTON CLOUDY 54 28 37 SE3 30.14S NEW BERN CLOUDY 57 32 38 S8 30.15F RICHLANDS MOCLDY 55 36 47 S8 30.14S ROCKY MOUNT CLOUDY 53 25 33 S5 30.12F WASHINGTON CLOUDY 52 21 29 S3 30.14F WHITEVILLE CLOUDY 59 38 45 S8 30.11F $$ AMZ130-135-150-152-154-156-158-170-250-252-270-ANZ085-086-088-633-658-670-012300- MARINE OBSERVATIONS STATION/POSITION TIME TEMP WIND PRES WAVE SWELL AIR SEA DIR/SP/G HT/PER HT/PER (UTC) (F) (DEG/KT/KT) (MB) (FT/S) (FT/S) CHESAPEAKE LIGHT 2200 41 170/ 14/ 14 1021.1 64 E VA BEACH 2200 45 48 200/ 10/ 10 1021.3 3/ 7 3/ 7 DUCK 2200 42 40 150/ 12/ 13 1020.1 2 E DUCK 2200 40 N/A 3/11 2/11 10 NE DUCK 2200 44 N/A 3/ 7 2/12 OREGON INLET 2200 43 37 150/ 5/ 8 1021.3 13E OREGON INLT 2200 46 N/A 4/10 2/11 HATTERAS CG 2200 51 47 210/ 4/ 6 1021.5 DIAMOND BUOY 2200 59 71 230/ 12/ 19 1021.6 4/ 9 3/ 9 17 S OCRACOKE NOT AVBL CAPE LOOKOUT 2200 51 100/ 4/ 5 1020.8 BEAUFORT LAB 2200 50 46 120/ 4/ 4 1019.9 27 SE WRIGHTSVLE NOT AVBL 5 SE WRIGHTSVLE 2200 55 53 150/ 6/ 6 1020.2 225 S CAPE HAT 2104 62 71 210/ 12/ 16 1024.8 6/10 7/10 41 SE CHARLESTON 2200 66 71 170/ 19/ 25 1018.8 4/ 4 3/10 $$

USA.gov is the U.S. government's official web portal to all federal, state and local government web resources and services.